This demonstration page uses our WeatherBlox Daily Observations layout. Learn more.

Left ArrowRight Arrow

38.89511, -77.03637

Hourly Observations for February 25, 2017

Temp ( °F °C ) Dew Point ( °F °C ) Humidity (%) Winds ( mph kmh ) Pressure ( in mb ) Visibility ( mi km ) Precip ( " mm )
12:52 am 00:52 Mostly Cloudy 61 16.1 58 14.4 90 90 S 13 20 29.77 1008 10 16 0.00 0.00
1:52 am 01:52 Mostly Cloudy 59 15 57 13.9 93 93 S 12 19 29.77 1008 10 16 0.00 0.00
2:52 am 02:52 Partly Cloudy 59 15 57 13.9 93 93 S 12 19 29.74 1007 10 16 0.00 0.00
3:52 am 03:52 Mostly Clear 61 16.1 58 14.4 90 90 S 14 22 29.73 1007 10 16 0.00 0.00
4:52 am 04:52 Mostly Clear 58 14.4 56 13.3 93 93 SSW 8 13 29.73 1007 10 16 0.00 0.00
5:52 am 05:52 Mostly Cloudy 58 14.4 56 13.3 93 93 S 10 17 29.71 1006 10 16 0.00 0.00
6:52 am 06:52 Partly Cloudy 59 15 57 13.9 93 93 S 14 22 29.69 1005 10 16 0.00 0.00
7:52 am 07:52 Mostly Cloudy 62 16.7 58 14.4 86 86 S 13 20 29.68 1005 10 16 0.00 0.00
8:52 am 08:52 Mostly Cloudy 63 17.2 58 14.4 84 84 S 13 20 29.66 1005 10 16 0.00 0.00
9:52 am 09:52 Mostly Cloudy 66 18.9 58 14.4 75 75 S 12 19 29.64 1004 10 16 0.00 0.00
10:52 am 10:52 Mostly Cloudy 71 21.7 59 15 66 66 SSW 20 31 29.62 1003 10 16 0.00 0.00
11:52 am 11:52 Mostly Cloudy 75 23.9 59 15 58 58 S 17 28 29.57 1002 10 16 0.00 0.00
12:52 pm 12:52 Mostly Cloudy 70 21.1 57 13.9 64 64 S 17 28 29.51 999 10 16 0.00 0.00
1:52 pm 13:52 Mostly Cloudy 73 22.8 57 13.9 57 57 S 16 26 29.46 998 10 16 0.00 0.03
2:18 pm 14:18 Mostly Cloudy with Light Rain 72 22.2 59 15 64 64 S 18 30 29.44 997 8 13 0.00 0.03
2:39 pm 14:39 Cloudy with Light Rain 70 21.1 59 15 68 68 SSW 16 26 29.44 997 7 11 0.01 0.25
2:52 pm 14:52 Mostly Cloudy with Thunderstorms 69 20.6 60 15.6 73 73 SW 13 20 29.43 997 8 13 0.07 1.78
3:13 pm 15:13 Mostly Cloudy with Strong Thunderstorms 65 18.3 60 15.6 84 84 SSW 18 30 29.47 998 3 5 0.01 0.25
3:19 pm 15:19 Cloudy with Thunderstorms 65 18.3 60 15.6 84 84 W 26 43 29.50 999 2 3 0.06 1.52
3:22 pm 15:22 Cloudy with Strong Thunderstorms 63 17 57 14 83 83 WNW 25 41 29.50 999 2 3 0.00 0.00
3:24 pm 15:24 Cloudy with Strong Thunderstorms 59 15 55 13 88 88 NW 23 37 29.50 999 3 5 0.00 0.00
3:30 pm 15:30 Windy with Storms Likely 57 14 52 11 82 82 NW 21 33 29.50 999 7 11 0.00 0.00
3:52 pm 15:52 Cloudy with Thunderstorms 56 13.3 50 10 81 81 NNW 15 24 29.52 1000 10 16 0.11 2.79
4:15 pm 16:15 Cloudy with Nearby Thunderstorms 56 13.3 47 8.3 72 72 NW 16 26 29.53 1000 10 16 0.00 0.00
4:47 pm 16:47 Cloudy 57 14 45 7 63 63 NNW 10 17 29.59 1002 10 16 0.00 0.00
4:52 pm 16:52 Cloudy 57 13.9 45 7.2 64 64 NW 15 24 29.59 1002 10 16 0.00 0.00
5:01 pm 17:01 Mostly Cloudy with Nearby Thunderstorms 57 13.9 45 7.2 64 64 NNW 18 30 29.59 1002 10 16 0.00 0.00
5:22 pm 17:22 Partly Cloudy 57 13.9 43 6.1 60 60 NW 16 26 29.59 1002 10 16 0.00 0.00
5:52 pm 17:52 Mostly Cloudy 56 13.3 40 4.4 55 55 NW 15 24 29.60 1002 10 16 0.00 0.00
6:52 pm 18:52 Mostly Cloudy 55 12.8 38 3.3 53 53 NW 10 17 29.63 1003 10 16 0.00 0.00
7:52 pm 19:52 Partly Cloudy 55 12.8 31 -0.6 40 40 NW 14 22 29.66 1004 10 16 0.00 0.00
8:52 pm 20:52 Partly Cloudy 52 11.1 29 -1.7 41 41 NW 21 33 29.71 1006 10 16 0.00 0.00
9:52 pm 21:52 Partly Cloudy 49 9.4 24 -4.4 38 38 NW 20 31 29.78 1008 10 16 0.00 0.00
10:52 pm 22:52 Mostly Clear 46 7.8 23 -5 40 40 NW 23 37 29.82 1010 10 16 0.00 0.00
11:52 pm 23:52 Mostly Clear 44 6.7 22 -5.6 41 41 WNW 14 22 29.86 1011 10 16 0.00 0.00

Powered by AerisWeather